Temp
46 43 41 46 44 43 42 38 38 42 47 44 44 44 51 51 45 46 46 47 49 50 56 50 48 46 44 44 45 46 50 52 52 51 50 50 48 49 48 48 50 50 51 52
42 39 49 49 46 44 40 37 38 43 45 45 44 43 49 51 48 53 55 52 52 53 48 46 45 44 44 45 48 48 52 51 51 50 51 50 48 46 47 47 47 48 47 49
41 46 48 49 43 42 40 38 37 41 42 41 39 37 41 48 48 51 51 55 57 55 54 46 43 44 44 44 47 49 52 50 49 50 48 47 46 46 45 44 44 44 45 44
43 47 47 43 42 46 38 44 43 41 38 33 37 32 42 46 50 48 53 53 54 54 49 46 45 43 45 45 48 49 52 51 49 49 49 47 48 46 45 44 42 41 42 42
43 43 43 42 44 47 43 44 42 39 34 31 30 31 39 40 43 49 56 55 51 49 48 46 45 47 46 44 47 48 52 51 49 50 49 49 47 43 43 41 40 39 39 40
41 43 46 47 44 47 46 41 39 34 33 28 35 37 38 39 45 48 51 53 49 46 45 44 43 43 41 43 46 47 50 49 49 49 49 48 43 41 39 40 38 38 38 37
38 42 42 46 42 42 43 40 31 28 25 30 31 31 43 48 48 50 53 52 45 42 41 40 39 39 39 42 46 48 49 47 48 47 48 47 45 42 43 40 40 37 37 36
35 33 42 45 47 42 39 40 31 22 23 28 31 29 39 45 49 47 47 44 41 45 43 39 38 38 39 42 46 49 47 47 47 47 46 45 44 44 44 43 42 42 41 38
34 34 39 41 42 50 38 35 42 34 17 21 32 36 43 43 44 46 45 42 42 43 42 38 37 38 38 41 46 47 47 46 46 45 44 44 44 43 42 42 41 39 38 37
42 34 35 38 43 41 41 43 34 30 21 17 29 31 37 42 45 45 43 44 43 40 37 37 36 37 38 41 42 43 45 45 45 44 44 43 43 42 42 40 38 37 37 37
42 38 33 36 36 38 37 36 35 37 30 23 20 35 41 44 45 45 43 43 43 41 39 36 36 36 37 38 38 39 43 41 41 41 40 41 41 40 39 38 37 37 37 33
45 39 28 34 36 37 36 37 38 32 28 29 28 39 43 43 43 42 43 42 42 41 39 36 36 35 35 35 35 38 40 42 41 40 39 40 39 38 37 37 37 36 35 33
46 36 28 31 34 34 36 38 45 39 34 33 27 38 40 39 42 44 43 42 42 39 37 36 34 34 35 35 36 37 38 40 39 38 38 39 37 37 37 36 36 35 34 32
47 36 34 34 34 36 32 35 39 43 35 35 37 43 45 40 41 44 44 43 43 40 39 36 35 36 36 36 37 37 38 38 37 37 37 37 36 37 37 36 35 35 33 32
44 33 33 36 34 33 32 36 39 39 43 37 42 41 49 52 46 50 46 44 42 41 39 38 37 36 36 36 37 38 38 37 37 36 36 37 36 37 36 35 34 34 33 33
42 33 34 35 35 35 33 36 37 41 43 44 45 43 55 49 48 44 47 47 45 42 42 42 39 37 36 37 37 38 38 36 36 36 36 36 36 35 34 34 33 32 32 31
37 34 33 32 38 36 30 36 38 36 43 43 38 46 53 49 44 44 47 45 44 44 44 43 42 41 40 38 39 37 38 35 35 35 35 34 35 34 33 33 32 31 31 31
33 32 34 33 32 26 39 40 45 42 43 43 42 47 49 49 44 46 42 43 45 43 43 43 43 42 39 38 38 38 35 33 34 33 32 32 33 33 32 32 31 31 31 30
40 34 31 29 30 33 36 33 34 36 39 45 43 47 48 50 39 46 42 44 43 41 41 40 41 41 38 37 36 34 33 32 33 32 31 32 33 31 31 30 31 31 30 29
38 37 33 32 27 26 34 32 33 40 35 37 42 45 44 39 33 44 38 35 37 36 36 36 36 36 34 32 33 33 31 31 31 32 32 33 33 31 30 31 29 27 27 27
30 30 30 31 29 32 34 33 35 30 34 29 35 42 33 36 38 36 35 34 33 33 34 34 32 33 32 31 32 30 29 29 31 32 31 31 31 30 31 29 28 27 27 26
29 28 29 29 27 25 32 33 32 36 32 30 30 33 32 34 34 32 35 35 34 33 32 30 28 28 27 29 30 28 28 29 30 30 30 29 30 30 29 29 27 27 27 25
27 29 27 29 28 34 34 35 37 37 37 35 34 35 35 34 34 34 34 32 32 27 28 26 27 27 26 27 29 27 27 29 30 30 30 30 30 30 30 28 27 27 27 27
32 35 32 33 38 39 36 37 37 35 36 36 34 34 34 35 35 34 30 32 32 27 27 25 28 27 26 28 31 31 31 31 32 30 29 30 30 29 30 30 29 29 27 27
31 31 30 31 34 33 35 34 36 36 36 35 34 34 35 35 31 31 28 26 28 27 24 25 27 26 24 25 24 28 30 33 32 31 29 29 30 30 28 25 28 28 26 29
31 30 30 29 36 35 36 36 34 35 34 34 33 31 32 33 32 28 25 25 24 24 22 23 22 21 19 19 16 15 16 23 24 24 25 25 25 23 22 21 20 27 26 27
MSLP
1017.46 1018.14 1018.12 1017.49 1017.88 1018.16 1018.43 1018.82 1018.85 1018.40 1017.90 1018.17 1017.74 1017.45 1016.47 1016.16 1016.60 1016.48 1016.32 1016.27 1015.84 1015.75 1014.65 1015.80 1016.34 1017.22 1018.08 1018.70 1019.06 1019.34 1019.60 1019.98 1020.38 1020.95 1021.34 1021.69 1021.97 1022.60 1022.63 1022.77 1022.78 1022.95 1023.09 1023.49
1018.32 1017.91 1017.07 1017.46 1017.90 1018.32 1018.63 1018.92 1018.96 1018.30 1018.05 1018.28 1017.68 1017.29 1016.32 1015.73 1015.27 1014.74 1014.37 1014.33 1014.31 1014.33 1014.42 1015.05 1015.74 1016.58 1017.20 1017.79 1018.45 1018.89 1019.11 1019.66 1020.09 1020.34 1020.88 1021.31 1022.08 1022.60 1022.96 1023.20 1023.16 1023.34 1023.57 1023.69
1017.61 1016.91 1016.78 1017.32 1017.96 1018.44 1018.60 1018.88 1018.95 1018.80 1018.40 1018.25 1017.97 1016.67 1015.51 1014.06 1013.86 1013.53 1012.93 1012.46 1012.54 1012.71 1013.31 1014.26 1015.34 1015.78 1016.56 1017.06 1017.48 1018.09 1018.48 1019.11 1019.65 1020.02 1020.72 1021.66 1022.39 1022.83 1023.23 1023.51 1023.79 1023.82 1023.67 1024.35
1017.56 1016.76 1016.99 1017.47 1017.70 1017.95 1018.09 1017.78 1018.26 1018.87 1019.45 1019.22 1018.47 1016.46 1014.83 1013.79 1013.15 1012.70 1011.49 1011.11 1011.10 1011.73 1012.43 1013.27 1014.26 1015.04 1015.24 1015.76 1016.76 1017.49 1017.96 1018.60 1019.18 1019.66 1020.30 1020.81 1021.33 1022.34 1022.70 1023.17 1023.79 1024.11 1024.14 1024.33
1016.16 1016.56 1016.85 1017.04 1016.80 1017.38 1017.45 1017.72 1018.38 1018.94 1019.58 1019.57 1018.91 1018.23 1013.40 1013.10 1012.98 1011.87 1010.34 1010.01 1010.36 1011.12 1012.00 1012.69 1013.44 1013.91 1014.72 1015.68 1016.44 1017.26 1017.72 1018.31 1018.90 1019.36 1019.79 1020.32 1020.98 1021.81 1022.56 1023.26 1023.97 1024.47 1024.73 1024.84
1016.27 1016.18 1016.27 1016.15 1016.59 1016.76 1017.38 1018.08 1018.85 1019.59 1019.96 1019.42 1018.08 1017.57 1012.42 1012.68 1011.59 1010.95 1010.03 1009.73 1010.30 1011.13 1011.80 1012.51 1013.18 1013.97 1014.77 1015.51 1016.24 1016.92 1017.34 1017.95 1018.63 1019.07 1019.46 1019.83 1020.55 1021.60 1022.54 1023.23 1023.83 1024.56 1024.95 1025.30
1016.33 1015.94 1015.86 1015.80 1016.63 1017.20 1017.37 1018.39 1019.58 1020.22 1020.53 1018.55 1017.64 1017.10 1012.20 1011.21 1010.63 1010.32 1010.09 1009.94 1010.59 1011.29 1012.10 1012.82 1013.37 1013.96 1014.62 1015.15 1015.73 1016.52 1017.10 1017.78 1018.34 1018.92 1019.34 1019.77 1020.32 1021.10 1021.65 1022.41 1023.24 1024.12 1024.91 1025.66
1016.15 1015.85 1015.32 1015.08 1014.94 1015.92 1017.04 1017.38 1018.71 1019.57 1020.53 1019.01 1017.88 1015.27 1011.50 1010.22 1009.70 1009.68 1010.00 1010.27 1010.94 1011.44 1012.07 1013.11 1013.87 1014.21 1014.54 1014.97 1015.36 1015.68 1016.39 1017.36 1018.16 1018.78 1019.32 1019.86 1020.32 1020.88 1021.65 1022.23 1023.14 1023.81 1024.05 1024.86
1015.48 1015.26 1014.61 1014.60 1014.61 1014.97 1016.63 1017.08 1017.18 1018.76 1020.56 1019.94 1016.42 1013.28 1011.27 1010.21 1009.79 1009.48 1009.64 1010.63 1011.02 1011.48 1012.31 1013.15 1014.03 1014.43 1014.81 1015.14 1015.18 1015.51 1015.92 1016.75 1017.46 1018.19 1019.01 1019.71 1020.28 1020.87 1021.47 1022.17 1023.12 1023.72 1024.42 1024.86
1014.13 1014.98 1014.91 1014.95 1014.82 1015.28 1015.28 1015.85 1017.28 1018.34 1019.66 1019.01 1015.39 1013.70 1011.36 1010.03 1009.51 1009.18 1009.84 1010.10 1010.58 1011.36 1012.40 1013.23 1014.04 1014.52 1014.79 1014.87 1015.18 1015.67 1016.18 1016.83 1017.51 1018.24 1018.78 1019.32 1019.74 1020.45 1021.32 1022.13 1023.02 1023.65 1024.43 1024.86
1013.80 1014.66 1015.40 1015.40 1014.71 1014.53 1015.40 1015.52 1016.22 1016.84 1017.60 1017.34 1015.80 1011.15 1009.10 1008.73 1008.80 1009.16 1009.60 1010.14 1010.63 1011.20 1012.33 1013.32 1014.12 1014.40 1014.75 1015.00 1015.33 1015.63 1015.99 1016.49 1017.26 1018.01 1018.79 1019.57 1020.17 1020.73 1021.30 1021.77 1022.49 1023.16 1024.01 1024.87
1013.32 1014.12 1015.17 1014.75 1014.18 1014.06 1013.94 1013.96 1014.59 1015.57 1016.68 1016.42 1015.24 1009.04 1008.42 1008.32 1008.59 1008.98 1009.48 1009.94 1010.69 1011.36 1012.13 1012.82 1013.61 1014.28 1014.72 1015.07 1015.36 1015.38 1015.83 1016.58 1017.41 1018.14 1018.76 1019.28 1019.95 1020.46 1021.38 1022.20 1022.84 1023.31 1023.95 1024.66
1012.92 1014.06 1014.82 1014.72 1014.71 1014.41 1013.99 1014.00 1013.51 1014.04 1014.69 1013.73 1014.29 1008.26 1008.59 1008.49 1008.52 1008.75 1009.32 1010.02 1010.91 1011.72 1012.37 1012.97 1013.74 1013.82 1014.17 1014.42 1015.03 1015.52 1015.71 1015.81 1016.34 1017.15 1017.99 1018.95 1019.75 1020.45 1020.96 1021.66 1022.56 1023.52 1024.30 1024.92
1012.71 1013.28 1013.22 1012.66 1012.55 1012.61 1013.48 1012.93 1012.76 1012.90 1013.07 1011.25 1010.57 1007.70 1007.94 1008.35 1008.46 1008.59 1008.98 1009.80 1010.44 1011.28 1011.93 1012.64 1013.09 1013.45 1013.69 1013.91 1014.24 1014.78 1015.52 1015.90 1016.35 1017.04 1017.84 1018.55 1019.20 1019.70 1020.66 1021.69 1022.46 1023.10 1023.86 1024.79
1013.49 1013.15 1013.06 1012.54 1012.50 1012.58 1012.34 1011.85 1011.87 1011.77 1009.60 1010.93 1006.52 1008.81 1004.50 1007.57 1008.12 1008.08 1008.65 1009.41 1010.06 1010.79 1011.48 1011.80 1012.17 1012.59 1012.79 1013.08 1013.34 1013.96 1014.66 1015.29 1015.78 1016.58 1017.39 1017.90 1018.70 1019.43 1019.93 1020.92 1021.83 1022.87 1023.64 1024.36
1013.13 1013.19 1013.02 1012.49 1012.50 1012.43 1012.28 1011.61 1010.88 1010.13 1009.39 1009.74 1007.44 1007.34 1002.92 1006.43 1007.06 1007.75 1008.18 1008.98 1009.46 1009.87 1010.37 1010.63 1011.00 1011.53 1011.83 1011.83 1012.25 1012.83 1013.34 1014.05 1015.24 1015.71 1016.28 1017.19 1018.17 1018.93 1019.80 1020.47 1021.34 1022.65 1023.71 1024.82
1012.20 1012.52 1012.71 1011.54 1011.24 1011.72 1011.41 1009.50 1009.66 1009.71 1008.78 1008.51 1008.06 1004.26 1004.05 1006.30 1007.10 1007.63 1007.74 1008.15 1008.76 1009.20 1009.35 1009.51 1009.76 1009.66 1010.14 1010.33 1010.79 1011.72 1012.66 1013.68 1013.92 1015.43 1015.97 1016.43 1017.40 1018.29 1019.60 1020.40 1021.04 1021.84 1023.11 1024.04
1011.76 1011.75 1011.86 1010.55 1010.72 1009.32 1007.43 1007.62 1007.86 1008.51 1008.04 1008.32 1007.55 1005.29 1004.85 1005.72 1006.59 1006.96 1007.12 1007.97 1008.25 1008.18 1008.42 1008.43 1008.76 1008.60 1008.88 1009.22 1010.06 1011.03 1012.00 1013.08 1013.82 1014.69 1015.53 1016.16 1016.81 1017.50 1018.83 1019.79 1020.59 1021.53 1022.31 1023.31
1011.01 1011.46 1011.16 1010.20 1009.20 1008.54 1008.42 1008.28 1008.02 1007.84 1006.69 1006.77 1006.65 1006.36 1005.75 1005.25 1007.02 1006.35 1007.08 1007.14 1007.80 1008.05 1007.94 1008.12 1008.30 1008.05 1008.36 1008.84 1009.46 1010.77 1011.83 1012.74 1013.43 1014.14 1015.15 1015.83 1016.53 1017.21 1018.44 1019.16 1020.13 1021.08 1022.17 1023.32
1010.29 1010.43 1010.77 1010.06 1009.10 1008.16 1007.58 1007.40 1007.08 1007.21 1006.89 1005.33 1006.38 1006.36 1006.13 1006.63 1007.83 1006.60 1007.29 1007.78 1008.13 1008.13 1008.28 1008.29 1007.97 1007.87 1008.36 1009.08 1009.79 1010.65 1011.48 1012.56 1013.37 1014.18 1014.96 1015.67 1016.39 1017.14 1018.18 1018.75 1019.95 1020.97 1021.71 1023.11
1010.28 1009.94 1009.31 1008.82 1008.24 1007.60 1007.15 1007.07 1007.40 1007.65 1006.32 1005.73 1005.79 1005.76 1006.64 1007.24 1007.28 1007.81 1008.19 1008.33 1008.75 1008.47 1008.47 1008.56 1008.53 1008.46 1008.66 1009.15 1010.12 1010.94 1011.73 1012.46 1013.34 1013.98 1014.92 1015.81 1016.62 1017.41 1018.72 1019.43 1020.23 1021.27 1022.22 1023.12
1009.97 1009.50 1008.96 1008.87 1008.15 1007.53 1007.13 1008.00 1007.95 1006.39 1006.20 1006.44 1006.71 1006.78 1006.84 1007.05 1007.41 1007.90 1008.49 1008.55 1008.94 1009.05 1008.99 1009.00 1009.50 1009.67 1009.55 1009.95 1010.38 1011.71 1012.38 1012.70 1013.54 1014.06 1014.83 1015.36 1016.41 1017.44 1018.66 1019.56 1020.57 1021.55 1022.31 1023.18
1009.92 1009.25 1009.15 1008.48 1007.68 1007.40 1007.05 1006.20 1005.94 1005.95 1006.36 1006.87 1007.06 1006.91 1007.09 1007.40 1007.45 1007.82 1008.32 1009.04 1009.48 1009.96 1009.83 1009.73 1009.55 1010.17 1010.64 1010.70 1011.32 1012.20 1012.83 1013.15 1013.66 1014.30 1015.30 1015.76 1016.46 1017.39 1018.26 1019.26 1020.21 1021.15 1021.84 1022.50
1008.51 1007.95 1008.53 1008.95 1007.39 1007.56 1007.38 1006.71 1006.69 1006.47 1006.56 1006.73 1007.03 1007.09 1007.44 1007.66 1007.63 1008.47 1008.85 1009.33 1009.84 1010.32 1010.04 1010.01 1010.40 1011.06 1011.74 1011.90 1012.10 1012.61 1012.97 1013.30 1013.83 1014.60 1015.28 1015.93 1016.51 1017.51 1018.34 1019.25 1019.95 1020.52 1021.31 1022.13
1008.92 1008.55 1007.75 1007.29 1006.84 1006.95 1006.66 1006.56 1006.19 1006.35 1006.89 1007.26 1007.11 1007.24 1007.68 1007.78 1008.24 1008.89 1009.47 1010.09 1010.60 1010.70 1010.68 1010.95 1011.23 1011.95 1012.47 1012.56 1012.74 1013.18 1013.44 1013.80 1014.58 1015.17 1015.55 1016.31 1016.92 1017.61 1018.43 1019.20 1019.80 1020.38 1021.01 1021.31
1008.90 1008.72 1008.19 1007.13 1006.83 1006.84 1006.39 1005.95 1006.17 1006.60 1006.59 1007.00 1007.57 1007.98 1008.15 1008.43 1008.69 1009.26 1009.99 1010.72 1011.07 1011.20 1011.33 1011.69 1012.35 1012.88 1013.46 1014.04 1014.25 1014.30 1014.40 1014.70 1014.85 1015.63 1016.44 1016.92 1017.31 1017.94 1018.72 1019.60 1020.66 1021.09 1021.48 1021.81
Wind_Speed
3 4 9 16 8 3 4 4 5 5 4 4 9 9 16 9 6 11 12 12 14 16 18 9 11 9 8 7 8 8 9 7 7 4 3 3 4 1 3 4 5 7 7 9
4 9 11 5 5 4 2 2 6 6 4 5 8 13 14 14 10 13 17 16 17 14 9 9 10 11 12 11 12 10 11 10 8 5 3 3 4 3 3 2 4 5 7 7
9 5 3 8 4 5 6 6 5 9 4 5 6 8 10 9 7 10 13 18 15 18 17 10 11 14 11 13 15 13 12 12 8 8 7 5 6 4 3 3 3 2 7 6
7 3 5 4 5 8 7 9 6 4 2 5 1 10 6 6 11 8 16 15 17 15 8 8 13 14 17 16 12 16 13 13 9 11 8 10 7 6 3 3 3 3 4 7
9 8 6 6 8 8 6 5 6 3 4 3 1 6 5 1 7 15 19 15 11 8 9 11 14 15 12 11 14 13 12 12 11 11 11 10 8 4 5 6 7 5 4 6
4 1 6 8 2 5 6 5 5 4 1 5 12 9 4 7 9 7 8 11 6 4 7 7 6 7 8 9 13 12 14 12 12 12 12 12 12 11 9 8 7 5 4 5
2 6 3 4 6 3 3 5 3 5 2 9 2 5 10 10 10 9 11 6 4 4 2 6 8 8 10 14 14 13 14 13 12 12 11 10 12 13 15 13 10 11 7 5
9 8 13 8 12 9 10 9 8 8 5 6 1 10 9 9 10 7 8 5 1 6 5 4 6 6 9 12 16 16 15 13 13 12 11 9 11 8 8 9 8 7 9 9
7 8 1 2 2 12 6 8 5 4 2 2 7 9 9 9 11 11 5 4 5 8 5 5 6 7 7 9 16 15 15 13 14 13 11 11 11 11 10 9 8 6 6 8
5 4 1 2 3 3 6 7 4 1 4 6 6 7 9 6 8 9 4 6 4 3 2 4 6 7 6 7 9 8 10 11 11 11 11 11 12 12 11 10 10 10 9 11
5 4 1 2 7 12 4 5 1 4 6 6 4 10 9 8 8 6 3 3 4 4 4 5 5 5 7 6 7 7 11 12 12 11 9 10 10 10 11 11 11 11 11 10
9 4 5 10 2 2 0 5 7 6 5 5 2 19 4 4 3 2 2 3 4 4 5 6 7 7 7 7 7 10 10 12 11 9 9 11 11 12 12 11 11 11 12 10
10 5 1 3 2 2 5 7 13 4 3 13 6 16 3 3 4 6 4 5 4 4 5 4 6 8 10 9 9 9 10 12 12 11 12 11 12 12 13 12 12 12 11 10
3 5 9 12 4 7 8 10 14 18 10 9 22 24 13 3 5 5 7 5 6 6 5 6 7 8 8 9 10 10 9 9 10 11 12 12 13 13 13 12 12 13 12 12
5 7 5 8 1 0 3 9 18 21 30 16 32 18 32 16 9 11 6 6 7 7 8 9 8 9 9 10 11 11 11 10 12 12 12 13 12 12 12 13 13 12 12 12
5 4 3 14 7 9 6 7 16 26 26 22 26 24 29 7 5 4 9 9 10 8 9 11 10 9 12 14 13 13 14 14 13 14 14 12 13 13 13 13 14 12 11 9
8 9 7 18 16 11 10 31 15 10 19 20 21 34 26 15 8 6 11 9 8 10 11 9 12 14 13 14 14 15 13 11 15 13 11 13 13 13 13 12 14 14 14 12
7 3 5 13 5 18 19 7 22 25 21 16 16 24 21 15 6 11 5 4 11 9 9 9 9 8 10 8 11 9 11 12 13 12 12 12 14 14 13 14 14 13 12 13
14 8 5 6 7 5 8 6 8 12 21 22 24 24 26 26 4 20 10 9 7 6 7 6 7 7 6 9 9 10 10 11 12 13 12 12 14 14 14 15 14 12 11 10
15 15 13 10 12 9 9 5 3 5 14 7 17 24 23 3 5 14 4 2 6 5 5 7 7 3 6 6 9 11 10 10 10 10 10 11 12 13 14 13 12 9 10 9
6 6 19 17 14 8 5 4 3 10 9 5 9 16 7 8 5 2 6 3 4 4 6 6 3 2 5 7 9 8 8 9 7 8 8 9 7 8 8 9 7 9 9 9
8 6 8 7 10 13 9 4 8 6 1 5 3 4 4 5 4 2 6 6 6 6 5 4 4 3 3 6 8 7 7 6 9 10 11 11 10 9 9 11 9 10 9 9
5 5 2 4 2 4 7 2 2 4 5 4 5 6 5 4 4 4 3 3 2 3 3 3 5 6 5 5 7 8 6 9 11 12 11 11 12 11 11 12 12 10 10 8
7 8 10 11 13 14 9 6 6 4 5 4 3 4 5 5 4 3 2 3 2 1 2 3 7 7 5 5 5 5 7 8 9 10 10 10 10 9 8 6 7 7 8 7
2 5 6 6 7 5 9 10 6 8 6 5 4 5 7 6 3 4 2 1 1 2 2 2 5 5 5 5 6 5 7 8 8 7 7 8 7 8 8 4 5 6 3 7
5 4 3 3 6 4 7 3 3 8 9 7 6 3 2 4 4 4 3 2 2 3 2 6 6 8 5 6 6 6 4 5 8 7 5 5 6 6 6 7 5 8 7 7
Wind_Direction
13 116 203 212 193 142 140 195 232 242 243 202 231 251 268 267 242 259 250 245 243 236 246 205 198 183 180 187 180 181 167 164 149 146 145 141 116 139 72 60 112 106 121 133
48 233 231 129 165 181 170 268 266 276 250 196 270 257 258 262 235 237 246 241 239 238 223 205 192 184 187 186 188 185 185 169 173 161 126 125 124 78 93 88 67 120 122 122
177 213 149 162 154 160 213 199 228 229 312 241 324 267 237 264 252 259 254 245 245 232 236 207 190 196 186 191 189 187 177 173 177 145 116 99 89 90 98 103 113 95 121 134
235 243 139 172 198 161 251 202 198 221 47 255 25 291 236 247 256 240 258 241 244 239 231 191 194 195 199 198 178 188 179 176 166 157 156 170 163 159 162 137 124 113 119 117
237 170 178 186 197 170 233 135 167 174 186 2 273 278 237 147 264 258 256 257 244 239 213 209 200 205 198 172 177 181 177 178 166 171 171 170 161 110 124 118 122 110 101 106
236 164 166 196 127 161 137 84 58 59 101 266 198 189 173 174 210 252 268 268 288 262 238 226 198 164 159 158 171 174 179 176 171 174 174 175 151 150 143 146 145 145 134 118
147 212 195 155 94 56 144 104 313 325 353 244 73 219 256 283 243 226 248 288 47 26 220 212 182 168 161 173 176 177 177 178 175 178 177 167 161 165 167 163 159 153 149 145
182 273 168 193 190 169 198 162 167 220 220 278 14 241 250 235 263 257 265 311 38 276 264 237 205 180 172 177 185 181 174 174 177 178 177 169 162 163 165 164 161 168 162 152
167 265 220 116 122 154 197 205 173 76 108 360 223 282 283 266 288 278 239 143 254 263 279 228 192 184 177 183 192 187 173 175 177 177 166 168 165 161 164 153 157 145 144 140
215 273 14 131 126 49 156 169 96 343 203 257 269 266 232 260 243 258 300 276 306 300 247 202 196 187 185 182 178 176 178 177 175 174 175 171 167 160 155 148 157 156 151 150
140 148 301 149 206 170 143 193 126 137 153 186 301 263 209 223 220 234 198 156 267 263 215 214 213 188 176 165 168 171 173 163 171 170 166 167 166 160 159 163 161 161 156 153
203 162 197 209 249 201 57 200 154 145 218 241 175 265 151 176 96 195 226 223 237 220 200 187 187 178 179 186 187 183 175 174 177 169 164 168 166 161 166 171 167 158 160 154
173 187 240 321 346 349 203 202 204 120 94 222 149 263 347 260 239 240 234 195 212 228 189 170 197 192 199 189 187 191 190 187 173 163 164 168 169 171 173 168 166 165 158 152
163 180 199 230 210 147 194 195 201 201 219 209 233 252 238 220 247 246 231 223 224 222 207 215 219 213 203 198 195 192 195 184 171 167 172 174 177 175 173 170 169 167 164 158
206 225 200 242 359 177 257 212 199 206 223 197 250 244 255 245 230 243 230 227 218 224 225 220 218 216 206 201 199 196 196 181 170 172 179 183 174 177 168 168 168 166 167 165
171 272 180 267 239 219 256 244 219 220 228 234 253 251 255 226 239 207 228 252 259 233 229 231 220 210 211 208 207 197 194 182 175 182 183 173 172 169 173 166 164 159 157 153
192 189 196 250 243 230 236 231 216 225 230 218 232 242 268 268 231 250 259 236 240 240 242 237 225 219 217 208 194 199 193 176 178 187 179 171 169 167 171 164 158 162 164 156
169 143 234 251 207 224 244 183 216 223 231 222 261 259 264 261 243 240 233 222 253 240 244 246 244 229 218 192 191 179 170 176 179 180 177 169 168 165 164 165 167 165 163 164
214 211 240 242 247 315 298 239 156 175 241 220 225 249 261 266 10 276 208 223 259 285 290 272 259 240 190 180 165 154 163 170 176 181 178 171 170 165 167 168 168 161 156 166
217 220 236 243 244 243 220 219 189 107 241 197 195 229 242 236 254 268 139 330 289 291 287 289 292 243 165 152 146 153 162 167 180 173 171 168 167 163 172 165 161 156 153 153
188 198 220 228 245 268 256 202 191 164 232 198 192 217 180 194 208 7 327 315 301 303 323 328 0 131 140 131 136 137 142 164 153 135 133 142 145 146 155 139 135 142 143 138
201 207 207 210 232 235 170 86 187 218 124 153 200 189 184 225 280 288 294 310 336 331 345 9 73 67 75 117 117 128 141 129 130 132 134 131 132 132 137 141 138 146 150 152
231 199 249 222 242 329 250 255 191 157 155 204 195 198 195 209 221 186 214 277 301 324 337 358 117 101 59 76 120 130 150 136 136 134 141 142 142 147 152 155 159 161 167 170
234 190 216 276 253 258 269 258 229 220 207 186 241 184 187 205 195 232 221 221 203 255 139 133 113 95 79 70 80 95 125 130 134 140 141 146 145 150 153 159 162 163 169 171
277 142 191 235 282 312 256 233 236 211 214 213 206 195 213 199 195 183 182 181 161 94 30 60 106 107 100 100 88 87 123 139 137 134 133 143 147 149 142 106 155 164 150 185
186 226 243 263 243 221 251 254 203 210 207 206 198 212 216 198 159 131 118 128 135 96 91 98 87 98 86 75 64 47 42 111 123 117 126 136 130 126 123 118 95 87 130 129